星链-3043 (STARLINK-3043 )

导读

STARLINK-3043是美国太空探索技术公司(SpaceX)星链(Starlink)星座的组网卫星,于2021年9月14日发射升空。星链项目旨在搭建全球卫星互联网星座,为全球提供宽带互联网接入服务,这颗卫星承担着扩展星链网络覆盖、提升星座通信服务能力的作用。

基本信息
目录编号:
49179
目录名称:
STARLINK-3043
国际标识:
2021-082BB
轨道中心:
EARTH
卫星名称:
星链-3043
卫星全名:
星链-3043 (STARLINK-3043 )
卫星状态:
在轨 (已飞行1738 天)
发射日期:
2021-09-14 UTC
国别 :
美国 (US)
星等 :
--
轨道信息
数据来源 国际轨道数据
星历时间: 2026-06-18T04:28:58+0800
15小时前
查看轨道信息
半长轴: 6950.205km
偏心率: 0.0002607
轨道倾角: 70.000°
近地点辐角 257.466°
升交点赤经 1.899°
平近点角 102.621°
近地点: 570.256km
远地点: 573.88km
周期: 96.107分钟
每日圈数: 14.983263
详细信息
固有亮度:
5
最大亮度:
2.5
卫星平台:
Starlink v1.5
覆盖范围:
全球
运营商:
太空探索技术公司
运营商所在国:
美国
制造商(研发单位):
太空探索技术公司
制造商所在国:
美国
使用方式:
暂无
卫星简介
星链(Starlink)计划是由太空探索技术公司(SpaceX)提出的一个巨型低轨卫星互联网星座项目,计划在2019年至2024年间在太空搭建由约1.2万颗卫星组成的“星链”网络,其中1584颗将部署在地球上空550千米处的近地轨道,并从2020年开始工作。该卫星仍在工作。
2D轨道图
3D轨道图
轨道高度分析图
轨道倾角分析图
轨道综合分析图
查看轨道综合分析图